GW2349 Weather Reports


Display with metric or nautical units.
time (UTC)temp
F
wind
direction
speed
MPH
gust
MPH
rain 1hr
in
rain 24hr
in
rain mn
in
humidity
%
barometer
mb
20260904102044 70 117 1.0 6.0 0.00 0.00 0.00 57 999.8
20260904101609 69 107 2.0 7.0 0.00 0.00 0.00 58 999.9
20260904101042 69 103 3.0 7.0 0.00 0.00 0.00 56 999.9
20260904100541 69 120 2.0 7.0 0.00 0.00 0.00 59 1000.0
20260904095542 69 107 3.0 7.0 0.00 0.00 0.00 60 1000.2
20260904095041 69 113 0.0 7.0 0.00 0.00 0.00 62 1000.2
20260904094556 68 111 2.0 7.0 0.00 0.00 0.00 64 1000.2
20260904094041 68 111 1.0 4.0 0.00 0.00 0.00 65 1000.1
20260904093541 67 0 0.0 4.0 0.00 0.00 0.00 67 1000.2
20260904093103 66 98 1.0 4.0 0.00 0.00 0.00 67 1000.2
20260904092543 66 0 0.0 4.0 0.00 0.00 0.00 67 1000.3
20260904092041 65 0 0.0 4.0 0.00 0.00 0.00 68 1000.3
20260904091554 65 121 1.0 3.0 0.00 0.00 0.00 72 1000.4
20260904091042 64 0 0.0 0.0 0.00 0.00 0.00 74 1000.3
20260904090541 63 0 0.0 0.0 0.00 0.00 0.00 75 1000.5
20260904090100 62 0 0.0 0.0 0.00 0.00 0.00 77 1000.4
20260904085542 61 0 0.0 0.0 0.00 0.00 0.00 77 1000.4
20260904085041 60 0 0.0 0.0 0.00 0.00 0.00 78 1000.4
20260904084558 60 0 0.0 0.0 0.00 0.00 0.00 79 1000.4
20260904084041 59 0 0.0 0.0 0.00 0.00 0.00 80 1000.4
20260904083543 58 0 0.0 0.0 0.00 0.00 0.00 81 1000.4
20260904083105 58 0 0.0 0.0 0.00 0.00 0.00 83 1000.4
20260904082540 57 0 0.0 0.0 0.00 0.00 0.00 85 1000.4
20260904082042 56 0 0.0 0.0 0.00 0.00 0.00 86 1000.5
20260904081551 56 0 0.0 0.0 0.00 0.00 0.00 87 1000.4
20260904081043 55 0 0.0 0.0 0.00 0.00 0.00 87 1000.5
20260904080541 55 0 0.0 0.0 0.00 0.00 0.00 87 1000.5
20260904080106 54 0 0.0 0.0 0.00 0.00 0.00 88 1000.5
20260904075543 54 0 0.0 0.0 0.00 0.00 0.00 88 1000.5
20260904075046 53 0 0.0 0.0 0.00 0.00 0.00 88 1000.5
20260904074557 53 0 0.0 0.0 0.00 0.00 0.00 89 1000.6
20260904074042 53 0 0.0 0.0 0.00 0.00 0.00 90 1000.6
20260904073543 52 0 0.0 0.0 0.00 0.00 0.00 90 1000.7
20260904073103 52 0 0.0 0.0 0.00 0.00 0.00 90 1000.7
20260904072542 52 0 0.0 0.0 0.00 0.00 0.00 91 1000.7
20260904072043 52 0 0.0 0.0 0.00 0.00 0.00 91 1000.8
20260904071553 51 0 0.0 0.0 0.00 0.00 0.00 91 1000.8
20260904071043 51 0 0.0 0.0 0.00 0.00 0.00 91 1000.8
20260904070543 51 0 0.0 0.0 0.00 0.00 0.00 91 1000.8
20260904070100 50 0 0.0 0.0 0.00 0.00 0.00 92 1000.9
20260904065545 50 0 0.0 0.0 0.00 0.00 0.00 92 1000.8
20260904065042 49 0 0.0 0.0 0.00 0.00 0.00 92 1000.9
20260904064607 49 0 0.0 0.0 0.00 0.00 0.00 92 1000.9
20260904064043 49 0 0.0 0.0 0.00 0.00 0.00 91 1000.9
20260904063543 48 0 0.0 0.0 0.00 0.00 0.00 91 1000.9
20260904063126 48 0 0.0 0.0 0.00 0.00 0.00 92 1000.9
20260904062544 48 0 0.0 0.0 0.00 0.00 0.00 91 1001.0
20260904062045 47 0 0.0 0.0 0.00 0.00 0.00 91 1001.0
20260904061552 47 0 0.0 0.0 0.00 0.00 0.00 91 1001.0
20260904061043 47 0 0.0 0.0 0.00 0.00 0.00 91 1001.0
20260904060543 46 0 0.0 0.0 0.00 0.00 0.00 91 1001.0
20260904060121 46 0 0.0 0.0 0.00 0.00 0.00 90 1001.0
20260904055543 46 0 0.0 0.0 0.00 0.00 0.00 89 1001.0
20260904055044 45 0 0.0 0.0 0.00 0.00 0.00 89 1001.1
20260904054557 45 0 0.0 0.0 0.00 0.00 0.00 88 1001.0
20260904054043 45 0 0.0 0.0 0.00 0.00 0.00 88 1001.2
20260904053543 45 0 0.0 0.0 0.00 0.00 0.00 88 1001.2
20260904053055 45 0 0.0 0.0 0.00 0.00 0.00 88 1001.2
20260904052543 45 0 0.0 0.0 0.00 0.00 0.00 89 1001.2
20260904052043 45 0 0.0 0.0 0.00 0.00 0.00 89 1001.3
20260904051602 45 0 0.0 2.0 0.00 0.00 0.00 89 1001.4
20260904051043 45 0 0.0 2.0 0.00 0.00 0.00 89 1001.4
20260904050543 45 0 0.0 0.0 0.00 0.00 0.00 88 1001.4
20260904050058 45 0 0.0 0.0 0.00 0.00 0.00 88 1001.3
20260904045543 45 0 0.0 0.0 0.00 0.00 0.00 88 1001.3
20260904045043 45 0 0.0 0.0 0.00 0.00 0.00 88 1001.4
20260904044601 45 0 0.0 0.0 0.00 0.00 0.00 88 1001.4
20260904044043 45 0 0.0 0.0 0.00 0.00 0.00 88 1001.4
20260904043547 45 0 0.0 0.0 0.00 0.00 0.00 88 1001.5
20260904043112 44 0 0.0 1.0 0.00 0.00 0.00 88 1001.5
20260904042542 44 0 0.0 2.0 0.00 0.00 0.00 88 1001.6
20260904042043 44 0 0.0 2.0 0.00 0.00 0.00 88 1001.5
20260904041601 44 0 0.0 1.0 0.00 0.00 0.00 88 1001.5
20260904041045 44 0 0.0 1.0 0.00 0.00 0.00 87 1001.5
20260904040548 44 0 0.0 1.0 0.00 0.00 0.00 87 1001.6
20260904040054 44 319 0.0 3.0 0.00 0.00 0.00 87 1001.6
20260904035544 44 0 1.0 3.0 0.00 0.00 0.00 87 1001.5
20260904035042 44 319 2.0 3.0 0.00 0.00 0.00 87 1001.6
20260904034552 44 352 0.0 3.0 0.00 0.00 0.00 86 1001.7
20260904034042 44 0 0.0 0.0 0.00 0.00 0.00 86 1001.7
20260904033546 44 0 0.0 0.0 0.00 0.00 0.00 86 1001.7
20260904033102 44 0 0.0 0.0 0.00 0.00 0.00 86 1001.7
20260904032543 44 0 0.0 0.0 0.00 0.00 0.00 86 1001.7
20260904032043 44 0 0.0 0.0 0.00 0.00 0.00 87 1001.8
20260904031556 44 0 0.0 0.0 0.00 0.00 0.00 86 1001.7
20260904031043 44 0 0.0 0.0 0.00 0.00 0.00 86 1001.8
20260904030543 44 0 0.0 0.0 0.00 0.00 0.00 86 1001.9
20260904030103 44 0 0.0 0.0 0.00 0.00 0.00 86 1001.9
20260904025546 44 0 0.0 0.0 0.00 0.00 0.00 86 1001.9
20260904025043 44 0 0.0 0.0 0.00 0.00 0.00 86 1001.9
20260904024608 45 0 0.0 0.0 0.00 0.00 0.00 86 1001.9
20260904024043 45 0 0.0 0.0 0.00 0.00 0.00 86 1001.8
20260904023542 45 0 0.0 2.0 0.00 0.00 0.00 86 1001.8
20260904023114 45 0 0.0 2.0 0.00 0.00 0.00 86 1001.9
20260904022545 45 352 0.0 0.0 0.00 0.00 0.00 86 1002.0
20260904022042 45 0 0.0 0.0 0.00 0.00 0.00 86 1002.1
20260904021603 45 0 0.0 0.0 0.00 0.00 0.00 86 1002.0
20260904021044 45 0 0.0 0.0 0.00 0.00 0.00 86 1002.0
20260904020543 45 0 0.0 0.0 0.00 0.00 0.00 86 1001.9
20260904020103 45 0 0.0 0.0 0.00 0.00 0.00 86 1002.0
20260904015545 45 0 0.0 0.0 0.00 0.00 0.00 86 1001.9
20260904015043 45 0 0.0 0.0 0.00 0.00 0.00 86 1002.0
20260904014602 46 0 0.0 0.0 0.00 0.00 0.00 86 1002.0
20260904014118 46 0 0.0 0.0 0.00 0.00 0.00 86 1002.0
20260904013542 46 0 0.0 0.0 0.00 0.00 0.00 86 1002.1
20260904013118 46 0 0.0 0.0 0.00 0.00 0.00 86 1002.1
20260904012542 46 0 0.0 0.0 0.00 0.00 0.00 85 1002.1
20260904012043 46 0 0.0 0.0 0.00 0.00 0.00 85 1002.2
20260904011601 46 0 0.0 0.0 0.00 0.00 0.00 85 1002.2
20260904011046 46 0 0.0 0.0 0.00 0.00 0.00 86 1002.2
20260904010542 46 0 0.0 0.0 0.00 0.00 0.00 85 1002.2
20260904010101 46 0 0.0 0.0 0.00 0.00 0.00 86 1002.1
20260904005542 46 0 0.0 0.0 0.00 0.00 0.00 86 1002.2
20260904005046 46 0 0.0 0.0 0.00 0.00 0.00 85 1002.1
20260904004556 46 0 0.0 0.0 0.00 0.00 0.00 86 1002.2
20260904004043 46 0 0.0 0.0 0.00 0.00 0.00 86 1002.2
20260904003542 46 0 0.0 0.0 0.00 0.00 0.00 86 1002.2
20260904003053 46 0 0.0 0.0 0.00 0.00 0.00 86 1002.2
20260904002543 46 0 0.0 0.0 0.00 0.00 0.00 85 1002.3
20260904002043 46 0 0.0 0.0 0.00 0.00 0.00 85 1002.3
20260904001610 46 0 0.0 0.0 0.00 0.00 0.00 85 1002.3
20260904001042 46 0 0.0 0.0 0.00 0.00 0.00 85 1002.4
20260904000546 46 0 0.0 0.0 0.00 0.00 0.00 85 1002.4
20260904000103 46 0 0.0 0.0 0.00 0.00 0.00 85 1002.4
20260903235541 47 0 0.0 0.0 0.00 0.00 0.00 84 1002.3
20260903235042 47 0 0.0 0.0 0.00 0.00 0.00 84 1002.4
20260903234556 47 0 0.0 0.0 0.00 0.00 0.00 84 1002.5
20260903234043 47 0 0.0 0.0 0.00 0.00 0.00 84 1002.5
20260903233543 47 0 0.0 0.0 0.00 0.00 0.00 84 1002.5
20260903233054 47 0 0.0 0.0 0.00 0.00 0.00 85 1002.5
20260903232542 47 0 0.0 0.0 0.00 0.00 0.00 85 1002.4
20260903232042 47 0 0.0 0.0 0.00 0.00 0.00 84 1002.4
20260903231609 47 0 0.0 0.0 0.00 0.00 0.00 84 1002.5
20260903231046 48 0 0.0 0.0 0.00 0.00 0.00 84 1002.6
20260903230544 48 0 0.0 0.0 0.00 0.00 0.00 84 1002.6
20260903230057 48 0 0.0 0.0 0.00 0.00 0.00 84 1002.6
20260903225543 48 0 0.0 0.0 0.00 0.00 0.00 85 1002.5
20260903225042 48 0 0.0 0.0 0.00 0.00 0.00 84 1002.6
20260903224604 48 0 0.0 0.0 0.00 0.00 0.00 85 1002.5
20260903224042 48 0 0.0 0.0 0.00 0.00 0.00 85 1002.6
20260903223543 48 0 0.0 0.0 0.00 0.00 0.00 84 1002.6
20260903223112 48 0 0.0 0.0 0.00 0.00 0.00 85 1002.6
20260903222545 48 0 0.0 0.0 0.00 0.00 0.00 85 1002.5
20260903222042 48 0 0.0 0.0 0.00 0.00 0.00 85 1002.6
20260903221555 48 0 0.0 0.0 0.00 0.00 0.00 84 1002.6
20260903221043 49 0 0.0 0.0 0.00 0.00 0.00 84 1002.5
20260903220545 49 0 0.0 0.0 0.00 0.00 0.00 84 1002.4
20260903215543 49 0 0.0 0.0 0.00 0.00 0.00 82 1002.6
20260903215043 49 0 0.0 0.0 0.00 0.00 0.00 82 1002.6
20260903214553 49 0 0.0 0.0 0.00 0.00 0.00 82 1002.7
20260903214045 49 0 0.0 0.0 0.00 0.00 0.00 83 1002.6
20260903213542 49 0 0.0 2.0 0.00 0.00 0.00 82 1002.6
20260903213112 50 0 0.0 3.0 0.00 0.00 0.00 82 1002.6
20260903212543 50 350 1.0 3.0 0.00 0.00 0.00 82 1002.5
20260903212041 50 0 0.0 0.0 0.00 0.00 0.00 82 1002.5
20260903211556 50 0 0.0 0.0 0.00 0.00 0.00 82 1002.6
20260903211043 50 0 0.0 0.0 0.00 0.00 0.00 82 1002.6
20260903210543 51 0 0.0 0.0 0.00 0.00 0.00 82 1002.6
20260903210058 51 0 0.0 0.0 0.00 0.00 0.00 81 1002.6
20260903205542 51 0 0.0 0.0 0.00 0.00 0.00 81 1002.6
20260903205043 51 0 0.0 0.0 0.00 0.00 0.00 81 1002.6
20260903204601 52 0 0.0 0.0 0.00 0.00 0.00 82 1002.6
20260903204043 52 0 0.0 0.0 0.00 0.00 0.00 82 1002.6
20260903203543 52 0 0.0 0.0 0.00 0.00 0.00 82 1002.7
20260903203059 52 0 0.0 0.0 0.00 0.00 0.00 82 1002.5
20260903202542 53 0 0.0 0.0 0.00 0.00 0.00 82 1002.6
20260903202042 53 0 0.0 0.0 0.00 0.00 0.00 82 1002.7
20260903201558 53 0 0.0 0.0 0.00 0.00 0.00 82 1002.6
20260903201047 53 0 0.0 0.0 0.00 0.00 0.00 82 1002.6
20260903200545 53 0 0.0 0.0 0.00 0.00 0.00 83 1002.7
20260903200056 53 0 0.0 0.0 0.00 0.00 0.00 83 1002.7
20260903195542 54 0 0.0 2.0 0.00 0.00 0.00 83 1002.7
20260903195042 54 0 0.0 5.0 0.00 0.00 0.00 83 1002.7
20260903194604 54 0 0.0 5.0 0.00 0.00 0.00 83 1002.7
20260903194042 54 11 0.0 4.0 0.00 0.00 0.00 83 1002.7
20260903193542 54 15 0.0 4.0 0.00 0.00 0.00 83 1002.7
20260903193101 54 0 0.0 7.0 0.00 0.00 0.00 83 1002.8
20260903192545 54 307 1.0 7.0 0.00 0.00 0.00 83 1002.8
20260903192042 54 282 2.0 7.0 0.00 0.00 0.00 83 1002.8
20260903191554 54 299 1.0 5.0 0.00 0.00 0.00 82 1002.7
20260903191045 55 304 1.0 5.0 0.00 0.00 0.00 82 1002.7
20260903190543 55 335 1.0 5.0 0.00 0.00 0.00 82 1002.7
20260903190054 55 304 2.0 7.0 0.00 0.00 0.00 82 1002.7
20260903185543 55 313 1.0 7.0 0.00 0.00 0.00 82 1002.6
20260903185042 55 321 2.0 7.0 0.00 0.00 0.00 82 1002.6
20260903184609 55 311 1.0 5.0 0.00 0.00 0.00 81 1002.6
20260903184043 56 333 1.0 4.0 0.00 0.00 0.00 81 1002.7
20260903183546 56 0 0.0 4.0 0.00 0.00 0.00 81 1002.6
20260903183057 56 296 1.0 4.0 0.00 0.00 0.00 81 1002.6
20260903182545 56 0 0.0 2.0 0.00 0.00 0.00 81 1002.6
20260903182045 56 332 0.0 3.0 0.00 0.00 0.00 81 1002.6
20260903181604 56 15 1.0 3.0 0.00 0.00 0.00 81 1002.8
20260903181042 56 0 0.0 2.0 0.00 0.00 0.00 81 1002.6
20260903180542 56 0 0.0 4.0 0.00 0.00 0.00 81 1002.5
20260903180109 56 0 0.0 8.0 0.00 0.00 0.00 81 1002.6
20260903175541 56 5 2.0 8.0 0.00 0.00 0.00 81 1002.6
20260903175042 57 277 3.0 8.0 0.00 0.00 0.00 81 1002.5
20260903174555 57 309 2.0 9.0 0.00 0.00 0.00 81 1002.5
20260903174044 57 306 3.0 9.0 0.00 0.00 0.00 81 1002.5
20260903173542 57 323 1.0 8.0 0.00 0.00 0.00 81 1002.5
20260903173109 57 302 3.0 8.0 0.00 0.00 0.00 80 1002.6
20260903172544 57 322 2.0 8.0 0.00 0.00 0.00 80 1002.5
20260903172041 57 306 1.0 8.0 0.00 0.00 0.00 80 1002.5
20260903171603 57 252 2.0 6.0 0.00 0.00 0.00 80 1002.5
20260903171043 57 325 2.0 6.0 0.00 0.00 0.00 80 1002.5
20260903170542 57 306 1.0 6.0 0.00 0.00 0.00 80 1002.4
20260903170058 57 298 2.0 8.0 0.00 0.00 0.00 80 1002.5
20260903165543 57 17 2.0 8.0 0.00 0.00 0.00 80 1002.5
20260903165042 57 346 1.0 5.0 0.00 0.00 0.00 79 1002.5
20260903164609 58 261 2.0 7.0 0.00 0.00 0.00 79 1002.4
20260903164043 58 296 2.0 7.0 0.00 0.00 0.00 79 1002.4
20260903163544 58 304 2.0 6.0 0.00 0.00 0.00 79 1002.4
20260903163137 58 296 1.0 6.0 0.00 0.00 0.00 79 1002.4
20260903162545 58 347 2.0 7.0 0.00 0.00 0.00 79 1002.4
20260903162041 58 352 2.0 8.0 0.00 0.00 0.00 79 1002.4
20260903161601 58 309 2.0 8.0 0.00 0.00 0.00 79 1002.3
20260903161042 58 352 2.0 7.0 0.00 0.00 0.00 79 1002.4
20260903160542 58 292 2.0 8.0 0.00 0.00 0.00 79 1002.3
20260903160100 58 311 2.0 8.0 0.00 0.00 0.00 79 1002.4
20260903155541 59 5 3.0 10.0 0.00 0.00 0.00 79 1002.4
20260903155045 59 277 3.0 10.0 0.00 0.00 0.00 79 1002.4
20260903154607 59 350 3.0 8.0 0.00 0.00 0.00 79 1002.5
20260903154043 59 294 3.0 8.0 0.00 0.00 0.00 78 1002.4
20260903153542 59 352 3.0 8.0 0.00 0.00 0.00 78 1002.5
20260903153106 59 271 2.0 9.0 0.00 0.00 0.00 78 1002.4
20260903152542 59 352 3.0 9.0 0.00 0.00 0.00 78 1002.4
20260903152045 59 346 4.0 8.0 0.00 0.00 0.00 78 1002.4
20260903151604 59 360 2.0 13.0 0.00 0.00 0.00 78 1002.5
20260903151042 59 342 2.0 13.0 0.00 0.00 0.00 78 1002.5
20260903150541 59 261 3.0 8.0 0.00 0.00 0.00 78 1002.5
20260903150105 59 271 3.0 12.0 0.00 0.00 0.00 77 1002.5
20260903145543 59 269 4.0 12.0 0.00 0.00 0.00 77 1002.5
20260903145044 59 299 2.0 9.0 0.00 0.00 0.00 77 1002.4
20260903144559 59 309 2.0 9.0 0.00 0.00 0.00 77 1002.5
20260903144043 60 221 3.0 11.0 0.00 0.00 0.00 76 1002.5
20260903143542 60 23 3.0 11.0 0.00 0.00 0.00 76 1002.5
20260903143057 60 329 3.0 11.0 0.00 0.00 0.00 76 1002.6
20260903142544 60 5 2.0 8.0 0.00 0.00 0.00 76 1002.6
20260903142042 60 344 3.0 8.0 0.00 0.00 0.00 76 1002.6
20260903141606 60 303 3.0 8.0 0.00 0.00 0.00 76 1002.5
20260903141042 60 349 2.0 8.0 0.00 0.00 0.00 75 1002.5
20260903140542 60 323 1.0 9.0 0.00 0.00 0.00 75 1002.5
20260903140105 60 329 2.0 9.0 0.00 0.00 0.00 75 1002.5
20260903135547 60 269 2.0 8.0 0.00 0.00 0.00 74 1002.5
20260903135042 60 306 2.0 8.0 0.00 0.00 0.00 74 1002.5
20260903134628 60 259 3.0 8.0 0.00 0.00 0.00 74 1002.5
20260903134046 60 28 1.0 8.0 0.00 0.00 0.00 74 1002.6
20260903133542 60 0 3.0 9.0 0.00 0.00 0.00 74 1002.5
20260903133120 60 360 2.0 9.0 0.00 0.00 0.00 74 1002.5
20260903132545 60 295 3.0 8.0 0.00 0.00 0.00 74 1002.4
20260903132043 60 317 3.0 8.0 0.00 0.00 0.00 74 1002.4
20260903131608 60 269 2.0 11.0 0.00 0.00 0.00 74 1002.5
20260903131042 60 314 3.0 11.0 0.00 0.00 0.00 74 1002.5
20260903130543 60 336 5.0 11.0 0.00 0.00 0.00 74 1002.5
20260903130110 60 336 2.0 8.0 0.00 0.00 0.00 74 1002.4
20260903125544 60 300 1.0 9.0 0.00 0.00 0.00 75 1002.4
20260903125042 60 298 4.0 9.0 0.00 0.00 0.00 74 1002.4
20260903124610 60 342 3.0 9.0 0.00 0.00 0.00 73 1002.4
20260903124042 60 131 3.0 9.0 0.00 0.00 0.00 73 1002.4
20260903123544 60 352 2.0 8.0 0.00 0.00 0.00 73 1002.4
20260903123057 60 345 2.0 8.0 0.00 0.00 0.00 72 1002.4
20260903122542 60 346 2.0 9.0 0.00 0.00 0.00 72 1002.5
20260903122042 60 236 2.0 9.0 0.00 0.00 0.00 73 1002.4
20260903121557 61 286 2.0 4.0 0.00 0.00 0.00 72 1002.4
20260903121041 61 239 1.0 4.0 0.00 0.00 0.00 72 1002.3
20260903120543 61 211 1.0 4.0 0.00 0.00 0.00 72 1002.3
20260903120133 61 23 1.0 4.0 0.00 0.00 0.00 73 1002.3
20260903115542 61 0 0.0 5.0 0.00 0.00 0.00 73 1002.3
20260903115043 61 0 2.0 5.0 0.00 0.00 0.00 73 1002.3
20260903114608 61 315 0.0 4.0 0.00 0.00 0.00 74 1002.2
20260903114042 60 345 0.0 2.0 0.00 0.00 0.00 74 1002.3
20260903113542 61 0 0.0 0.0 0.00 0.00 0.00 73 1002.3
20260903113058 61 0 0.0 0.0 0.00 0.00 0.00 73 1002.3
20260903112542 61 0 0.0 1.0 0.00 0.00 0.00 73 1002.3
20260903112043 61 0 0.0 2.0 0.00 0.00 0.00 73 1002.3
20260903111602 61 0 0.0 2.0 0.00 0.00 0.00 73 1002.3
20260903111044 61 0 0.0 3.0 0.00 0.00 0.00 72 1002.4
20260903110542 61 0 1.0 3.0 0.00 0.00 0.00 72 1002.3
20260903110105 62 96 1.0 2.0 0.00 0.00 0.00 72 1002.4
20260903105542 62 0 0.0 2.0 0.00 0.00 0.00 72 1002.3
20260903105043 62 0 0.0 3.0 0.00 0.00 0.00 73 1002.3
20260903104556 62 96 0.0 3.0 0.00 0.00 0.00 72 1002.3
20260903104046 62 108 0.0 3.0 0.00 0.00 0.00 72 1002.2
20260903103543 63 108 1.0 4.0 0.00 0.00 0.00 71 1002.3
20260903103104 63 107 1.0 4.0 0.00 0.00 0.00 72 1002.2
20260903102543 63 118 0.0 4.0 0.00 0.00 0.00 72 1002.2